Temp
11 11 11 11 11 11 11 11 11 11 10 10 10 11 11 11 12 12 12 12 11 11 12 12 11 11 11 11 10 10 10 9 9 9 8 8 8 9 9 9 9 9
11 11 10 10 10 10 11 11 11 11 11 10 11 11 11 12 12 12 12 12 12 12 12 12 11 11 10 10 10 10 9 9 9 8 8 8 8 8 8 9 9 9
10 10 10 10 10 10 10 10 11 11 11 11 11 11 11 12 12 12 12 12 12 12 12 11 11 11 10 10 10 9 9 9 8 8 8 8 8 8 8 8 8 8
10 10 10 9 9 9 10 10 10 10 10 10 11 11 11 11 11 11 11 11 12 12 11 11 11 11 10 10 9 9 9 8 8 7 7 7 7 7 7 8 8 8
10 10 10 9 9 9 9 9 9 10 10 10 10 10 10 10 10 10 11 11 11 11 10 10 10 10 10 9 9 8 8 7 7 7 7 7 7 7 7 7 7 7
10 10 9 9 9 9 8 8 9 9 9 10 10 10 10 10 10 10 10 10 10 10 9 9 9 9 9 8 8 7 7 6 6 6 6 6 6 6 6 6 6 6
10 9 9 9 8 8 8 8 8 8 9 9 9 9 9 9 9 9 10 10 9 9 9 8 9 9 8 7 7 7 6 6 6 6 6 6 6 6 6 6 6 6
10 9 9 9 8 8 8 7 7 8 8 8 9 9 9 9 9 9 9 9 9 8 8 8 8 8 7 7 7 6 6 6 6 5 5 5 5 5 5 5 5 5
10 9 9 9 8 8 7 7 7 7 7 8 8 8 9 9 9 9 9 9 8 7 7 7 7 7 6 6 6 6 6 5 5 5 5 5 5 5 5 5 5 5
10 9 9 8 8 8 7 7 7 7 7 7 8 8 8 8 8 8 9 8 7 7 7 7 7 6 6 6 6 6 6 5 5 4 4 5 5 5 5 5 5 5
9 9 9 8 8 8 7 7 7 7 7 7 7 7 7 8 7 8 8 7 7 7 6 6 6 6 6 5 5 5 5 5 4 4 4 4 5 5 5 5 5 5
9 9 9 8 8 7 7 7 6 6 6 7 7 7 7 7 7 7 7 7 7 7 6 6 6 6 5 5 4 4 4 4 4 4 4 4 4 4 5 5 5 6
9 9 9 8 8 7 7 7 6 6 6 6 6 6 6 6 6 6 6 7 7 6 6 5 5 5 4 4 4 4 4 4 3 3 3 4 4 4 4 5 5 6
9 9 9 8 7 7 7 6 6 6 6 6 6 6 6 6 6 6 6 6 6 5 5 4 4 4 3 3 3 3 3 3 3 3 3 3 3 4 4 5 5 5
9 9 8 8 7 7 7 6 6 6 6 5 5 5 5 5 5 5 5 5 4 4 4 4 3 3 3 3 3 3 3 3 3 3 3 3 3 3 4 4 5 5
9 8 8 7 7 6 6 6 6 6 5 5 5 5 5 5 5 4 4 4 4 3 3 3 2 2 2 2 3 3 3 2 3 3 3 3 3 3 3 4 4 4
8 8 7 7 7 6 6 6 6 5 5 5 5 4 4 4 4 4 4 3 3 3 2 2 2 2 2 2 2 2 2 2 2 2 3 3 3 3 3 3 3 3
8 7 7 7 6 6 6 6 5 5 5 4 4 4 4 3 3 3 3 3 2 2 2 2 2 2 2 2 2 2 2 2 2 3 3 3 3 4 4 3 3 3
7 7 7 6 6 6 5 5 5 5 4 4 4 4 3 3 3 3 3 2 2 1 1 1 1 1 1 1 1 1 1 2 2 3 3 3 3 4 4 3 3 3
7 7 7 6 6 5 5 5 4 4 4 4 3 3 3 3 2 2 2 2 1 1 1 1 1 1 1 1 1 1 1 2 2 2 3 3 3 4 4 3 3 3
7 7 6 6 5 5 5 4 4 4 3 3 3 3 3 3 2 2 1 1 1 1 0 0 0 0 0 1 1 1 1 2 2 2 2 3 3 3 3 3 3 3
7 6 6 5 5 4 4 4 3 3 3 3 3 2 2 2 2 1 1 0 0 -0 -0 -1 -1 -1 -0 0 0 1 1 1 2 2 2 2 2 2 3 3 3 3
6 6 5 5 4 4 4 3 3 3 3 3 2 2 1 1 1 1 0 -0 -0 -1 -1 -1 -1 -1 -1 -0 -0 0 1 1 1 1 1 1 1 2 3 3 2 2
6 5 5 4 4 4 3 3 3 3 3 2 2 2 1 1 0 -0 -1 -1 -1 -1 -1 -1 -1 -1 -1 -0 -0 0 0 0 1 1 1 1 1 2 2 2 1 1
5 5 5 4 4 3 3 3 2 2 2 2 1 1 1 -0 -0 -1 -1 -1 -1 -1 -1 -1 -1 -1 -1 -1 -1 -1 -0 -0 0 0 0 0 1 1 1 1 1 0
5 5 4 4 4 3 3 2 2 1 1 1 0 0 0 -1 -1 -1 -1 -1 -1 -1 -1 -1 -1 -2 -2 -2 -1 -1 -1 -1 -0 -0 0 -0 0 0 0 -0 -0 -0
Height
791 791 792 792 793 794 794 795 796 798 799 800 802 803 805 808 810 812 814 817 819 820 822 823 825 826 828 829 831 832 834 835 837 838 840 841 843 845 847 848 849 851
789 790 791 791 791 792 792 793 793 794 796 797 799 800 803 805 807 808 811 813 815 817 819 821 822 824 825 826 828 829 831 832 834 836 838 839 841 843 844 846 847 849
786 787 788 789 790 790 791 791 791 792 794 796 797 798 800 802 803 805 807 809 811 813 815 817 819 821 822 824 825 826 828 829 831 833 835 837 839 841 842 843 845 847
784 785 786 787 788 790 791 791 791 791 792 794 795 797 798 800 801 803 804 806 808 810 811 813 815 817 819 821 822 823 825 826 828 830 832 834 836 839 840 840 842 844
782 782 783 785 787 788 790 790 790 790 791 792 793 795 796 797 799 801 802 804 805 807 808 810 811 813 816 817 819 820 822 824 826 828 830 832 833 835 837 839 840 841
779 780 780 781 783 785 786 787 788 789 789 790 791 793 794 795 797 799 801 802 804 805 806 808 809 811 813 815 816 818 820 823 824 826 827 829 831 832 834 836 838 839
776 777 779 779 779 780 782 783 785 786 787 788 789 790 792 793 795 797 798 800 802 803 805 806 807 809 811 813 814 816 819 821 823 824 825 826 828 830 832 834 836 837
773 775 777 778 778 777 778 780 781 783 784 786 787 788 790 791 793 795 796 798 799 801 802 804 805 807 809 810 812 814 816 819 821 822 824 825 826 828 829 831 833 835
771 772 774 775 776 775 775 777 779 780 782 783 784 786 787 789 791 793 794 796 797 799 800 802 803 805 806 808 809 811 814 816 818 820 822 823 824 825 827 829 831 833
769 769 770 771 773 774 773 774 776 777 779 781 782 784 785 787 789 790 792 794 795 797 798 800 801 802 804 806 807 809 811 813 816 818 820 821 822 823 824 826 828 831
766 767 767 767 769 771 772 772 773 775 776 778 780 781 783 785 786 788 789 791 793 794 796 797 799 800 802 804 805 807 809 811 813 816 818 821 822 822 822 824 826 829
762 763 764 765 766 768 769 770 770 772 774 775 777 779 781 782 784 786 787 789 791 792 794 795 797 798 800 801 803 805 807 810 812 814 817 819 821 822 822 823 825 826
758 760 761 763 764 765 767 768 768 769 771 773 775 776 778 780 781 783 785 787 789 790 792 793 795 796 798 799 801 803 805 808 810 813 815 818 820 822 823 823 824 825
756 758 759 761 763 764 765 766 766 767 769 771 772 774 775 777 779 781 783 784 786 788 790 791 793 794 796 798 800 802 804 806 808 811 813 816 818 820 822 824 824 825
754 756 757 759 761 762 763 763 764 765 766 768 770 772 774 775 777 779 780 782 784 786 787 789 791 792 794 796 798 800 802 804 806 809 811 814 816 819 821 823 824 825
752 753 755 757 758 760 761 761 761 762 764 766 768 770 772 773 775 777 778 780 782 783 785 787 788 790 792 794 797 798 801 804 806 808 810 813 815 817 820 822 823 825
749 750 752 753 755 757 759 759 759 760 762 764 766 768 770 771 773 775 776 778 780 781 783 785 786 788 790 793 795 797 800 803 805 807 809 812 814 815 817 820 823 825
745 747 748 750 753 755 756 757 758 758 760 762 764 766 768 770 771 773 774 776 778 780 781 783 785 787 789 791 794 796 799 801 804 806 807 809 811 813 815 818 821 823
742 744 744 747 750 752 754 755 756 756 757 759 762 764 766 768 770 771 773 775 776 778 780 782 784 786 788 790 792 795 798 800 802 805 806 808 810 812 813 815 817 820
739 740 741 744 747 749 751 752 753 754 755 757 760 762 764 766 768 769 771 773 775 777 779 781 783 785 786 789 791 794 796 799 801 803 805 807 810 811 812 814 816 818
736 737 739 741 744 747 748 749 751 752 753 755 757 759 762 763 765 767 769 771 773 775 777 779 781 783 785 788 790 792 794 797 799 802 804 806 809 811 813 814 817 819
733 735 737 739 741 744 745 747 748 749 751 753 755 758 760 762 764 765 767 769 771 773 775 777 779 781 784 786 788 790 792 795 798 801 803 805 807 810 813 815 817 820
731 732 735 737 739 741 743 744 746 747 749 751 753 756 758 760 762 764 765 767 769 771 773 775 778 780 782 785 786 788 790 793 796 798 801 804 806 809 812 815 818 821
729 730 733 735 737 738 741 742 744 745 747 749 751 754 756 759 761 762 765 766 768 770 772 774 776 779 781 783 785 787 789 791 794 797 799 803 806 809 812 815 818 820
726 728 730 732 735 736 739 740 742 744 746 748 751 753 755 758 760 762 764 765 767 769 771 773 775 777 779 781 783 785 787 790 793 795 799 802 805 808 811 814 816 819
725 727 728 730 732 734 737 739 741 743 745 747 750 752 755 757 759 761 763 764 766 768 770 772 774 776 778 780 782 784 786 788 791 794 797 801 805 807 810 813 815 817
Wind_Speed
27 26 25 26 27 27 26 26 27 28 29 30 31 31 31 29 29 31 33 33 33 33 33 33 33 33 34 36 36 36 36 37 38 39 39 37 35 32 28 26 27 27
26 26 25 26 27 28 27 26 27 28 29 30 31 30 29 28 29 31 33 33 32 32 33 33 33 33 34 35 35 35 35 36 37 38 38 36 32 30 28 26 26 27
26 25 25 26 26 27 27 27 26 27 28 29 30 30 29 28 29 31 33 33 33 33 33 34 33 33 33 33 34 34 35 35 36 37 37 36 32 28 27 27 27 27
26 25 25 25 25 25 26 27 27 27 27 28 29 29 28 28 28 31 33 33 33 34 34 35 34 33 32 32 32 33 33 34 34 34 34 34 32 29 26 26 27 26
25 26 25 25 25 24 25 26 28 28 28 28 28 27 27 28 28 30 31 32 33 34 35 35 34 33 32 31 32 31 31 31 32 32 33 32 31 30 27 26 25 25
25 25 26 25 25 25 25 26 28 29 29 29 28 27 27 27 27 28 30 30 30 32 33 33 32 32 31 31 31 30 29 29 30 31 32 31 30 29 28 27 25 25
25 25 25 25 26 27 26 27 27 28 29 28 27 27 27 26 26 26 27 28 28 29 31 31 30 30 31 31 30 29 28 28 29 29 29 30 29 27 27 27 26 26
25 25 25 26 26 26 26 26 27 27 27 27 27 27 26 25 24 24 25 26 27 29 29 29 29 29 29 30 29 29 29 28 28 28 28 28 28 28 27 27 27 26
25 25 26 27 27 27 25 25 27 28 27 27 27 26 25 25 24 23 24 25 27 27 28 27 27 27 27 28 28 28 29 30 29 29 29 29 29 29 28 28 28 28
27 27 27 28 28 28 26 25 25 27 27 27 27 26 26 25 24 24 23 24 25 26 26 25 25 25 26 26 27 28 28 29 29 29 30 31 31 30 30 30 31 31
28 28 29 29 29 28 27 25 26 27 27 27 26 26 25 25 25 24 24 23 23 23 23 23 24 25 26 27 27 27 27 27 28 28 29 30 30 31 31 32 33 33
29 29 30 30 30 28 27 25 26 27 27 26 26 26 25 25 25 24 23 22 22 22 22 23 24 25 26 27 26 26 25 25 26 27 28 29 30 31 32 33 34 34
30 30 31 30 29 28 26 25 25 26 27 26 26 25 25 26 25 24 23 22 22 23 23 23 23 24 25 25 25 25 26 25 25 27 28 28 29 30 32 33 33 33
30 30 30 29 28 28 27 26 25 25 25 25 25 25 25 25 25 24 22 21 22 22 22 22 22 23 24 24 24 25 26 26 26 27 28 28 29 30 31 31 31 31
29 29 29 28 28 28 28 27 26 25 25 25 24 24 24 24 23 22 21 21 21 21 21 22 22 23 24 24 24 25 26 26 27 29 29 30 30 30 31 31 31 31
28 27 27 27 28 28 28 28 26 25 25 24 24 23 23 23 22 21 20 20 20 20 21 22 22 23 24 24 25 25 25 25 27 29 30 31 32 32 31 31 31 31
27 27 26 27 27 27 27 27 26 25 25 24 24 23 22 22 21 20 19 19 19 19 21 22 22 23 23 24 25 24 24 26 28 29 30 32 33 33 33 33 32 31
28 27 27 27 27 27 26 26 25 25 24 24 24 23 22 21 20 20 19 18 18 19 20 20 21 21 22 23 23 23 24 26 29 31 32 33 34 34 34 34 33 31
27 27 27 27 28 27 26 26 25 25 25 24 23 22 22 21 19 18 18 18 18 19 19 19 19 20 20 20 20 21 23 26 29 31 32 33 34 34 36 36 35 33
27 27 27 27 27 27 27 26 26 25 24 23 23 22 21 20 18 17 17 18 19 19 19 19 19 20 20 19 19 21 23 25 28 30 30 31 32 34 36 36 35 34
26 26 27 27 27 27 27 27 26 25 24 23 22 22 21 20 18 17 17 17 18 19 19 19 19 19 19 19 20 21 23 24 26 27 28 30 31 34 35 35 34 32
26 26 26 26 27 27 27 27 26 25 24 23 22 21 20 19 18 17 17 17 17 17 17 18 18 18 18 18 19 22 23 24 25 26 27 28 29 32 33 33 31 28
26 26 26 26 27 27 27 27 27 25 24 23 22 21 20 19 18 17 17 16 16 16 17 17 17 16 17 18 19 22 23 24 24 25 25 25 27 30 31 29 27 23
25 26 26 26 27 28 28 28 27 26 24 23 22 22 20 19 18 17 16 15 15 15 16 16 16 16 16 18 19 21 23 24 24 24 24 24 26 29 29 27 24 21
24 24 25 26 27 28 28 28 26 25 24 22 21 20 19 18 17 16 16 15 14 14 14 15 15 15 16 18 19 21 23 24 24 24 24 25 28 29 28 25 22 19
23 24 25 26 27 27 27 26 25 24 23 22 20 19 18 18 17 16 16 15 14 15 15 15 16 16 17 18 18 19 22 24 25 24 25 27 29 29 26 23 20 17
Wind_Direction
224 224 222 218 218 220 220 219 218 220 221 220 221 223 224 225 228 227 223 221 219 217 218 219 220 221 222 222 223 224 226 226 225 224 219 214 213 212 213 213 210 207
225 224 223 221 221 221 222 222 220 221 223 223 224 227 228 230 232 231 227 225 224 223 223 224 223 224 225 225 224 225 226 226 226 224 219 215 214 213 215 214 209 204
222 222 222 222 223 223 223 224 222 222 225 227 229 230 231 233 233 231 227 226 227 229 230 228 226 226 227 228 227 227 227 227 227 225 220 216 215 213 213 210 203 198
221 222 222 223 225 227 226 225 224 223 224 226 229 231 231 232 232 230 229 229 231 234 233 230 227 226 227 229 229 228 228 228 227 224 219 214 213 212 206 200 195 193
224 224 223 224 226 228 228 228 228 226 226 226 227 230 231 231 231 231 232 233 235 235 231 228 226 225 226 225 226 226 225 226 224 221 218 213 211 211 206 200 195 191
224 224 224 224 224 226 228 229 230 229 229 229 229 230 230 231 233 234 234 235 235 233 229 226 225 225 225 224 222 222 221 221 220 218 215 211 209 209 207 205 200 194
222 223 223 223 223 225 226 227 228 228 229 229 229 230 230 231 233 234 236 237 236 234 231 229 228 227 227 225 222 220 219 219 218 216 213 209 207 205 203 203 200 194
223 222 222 224 224 224 224 225 226 226 226 226 227 228 230 232 234 234 237 238 238 236 234 231 230 229 227 224 222 221 219 219 219 216 212 207 205 202 198 197 195 190
224 223 222 224 225 226 225 224 225 225 225 226 227 229 230 233 235 236 239 239 238 236 234 232 231 229 227 224 224 223 220 220 219 217 212 208 203 199 195 191 187 183
225 224 224 225 227 228 227 224 224 225 225 227 228 229 231 232 233 235 236 237 235 233 233 233 231 230 228 226 225 225 222 220 218 216 213 210 205 199 193 189 185 180
225 225 225 226 227 229 228 225 225 225 226 227 229 230 231 231 231 231 231 232 234 235 235 234 234 233 230 227 225 224 223 221 217 214 213 211 208 202 195 190 187 182
224 226 227 226 226 227 228 226 225 225 226 227 228 230 231 229 229 229 229 233 237 239 238 237 236 233 230 227 224 221 220 219 215 212 210 210 207 201 196 192 188 182
224 226 228 227 226 227 228 227 226 225 225 226 226 228 227 226 226 227 230 236 240 240 238 237 233 230 228 225 221 218 216 213 209 207 207 206 203 198 194 191 186 179
226 227 229 230 229 229 228 226 225 224 224 224 225 225 225 226 227 229 232 236 237 236 235 233 228 225 224 221 217 215 213 209 205 204 202 199 197 194 191 188 182 175
228 229 231 231 230 229 227 224 223 223 223 223 225 225 226 227 229 231 233 234 233 232 232 228 224 222 220 217 213 211 210 207 203 200 197 194 190 187 186 183 176 169
228 228 228 228 228 226 224 222 221 221 220 221 224 224 224 226 228 230 232 233 232 229 226 224 222 222 220 216 212 210 208 204 199 196 195 191 186 182 180 175 169 164
225 224 223 224 224 222 221 219 218 218 217 218 219 220 221 222 224 227 230 231 230 226 222 222 222 222 220 215 213 211 208 202 197 194 193 191 186 180 173 166 162 161
222 221 219 220 220 219 217 216 215 213 212 212 213 215 217 219 220 224 227 226 223 220 220 221 221 221 218 215 213 210 207 203 199 196 193 189 185 178 169 163 162 163
220 218 218 217 217 217 215 213 210 208 207 208 210 213 215 217 219 223 225 223 219 217 217 217 216 215 212 210 208 204 204 204 201 197 193 188 183 176 169 167 167 166
218 217 216 215 215 214 212 209 208 206 205 206 207 209 211 213 217 219 219 219 216 214 214 213 211 210 206 203 200 200 201 202 199 196 192 188 183 177 173 171 171 170
216 215 213 211 210 209 207 206 205 203 202 204 206 207 210 212 214 215 214 214 214 213 213 211 211 209 206 203 201 200 200 199 196 193 189 185 181 177 175 175 175 173
214 211 209 206 204 203 202 202 201 200 200 201 203 204 207 209 211 212 212 210 208 209 208 207 208 208 205 201 198 198 197 194 192 190 187 184 180 177 176 177 175 172
212 209 205 202 200 199 198 198 198 197 198 199 199 198 200 205 206 205 206 204 201 200 200 199 199 201 200 197 196 195 193 189 188 186 184 182 178 175 176 175 172 171
210 207 203 199 198 198 197 196 195 194 195 196 197 196 197 199 199 196 197 198 197 197 198 197 195 196 197 196 195 195 192 188 185 180 178 178 173 171 172 171 170 171
205 204 202 199 198 198 196 194 192 191 191 192 193 193 192 191 190 188 187 190 193 195 197 196 192 190 193 194 193 194 192 188 183 178 175 172 168 165 166 169 169 170
201 201 201 199 197 195 192 190 188 186 184 184 185 186 185 182 183 183 181 183 188 190 192 193 189 184 186 190 192 193 191 186 182 179 174 170 167 166 167 169 171 173